This demonstration page uses our WeatherBlox Daily Observations layout. Learn more.

Left ArrowRight Arrow

Hourly Observations for March 19, 2017

Temp ( °F °C ) Dew Point ( °F °C ) Humidity (%) Winds ( mph kmh ) Pressure ( in mb ) Visibility ( mi km ) Precip ( " mm )
12:53 am 00:53 Mostly Cloudy 32 undefined 31 -0.6 96 96 WNW 3 6 30.30 1026 10 16 N/A
1:53 am 01:53 Cloudy 37 2.8 33 0.6 86 86 W 5 7 30.30 1026 10 16 N/A
2:53 am 02:53 Cloudy 37 2.8 33 0.6 86 86 W 5 7 30.31 1026 10 16 N/A
3:40 am 03:40 Cloudy 36 2.2 32 undefined 86 86 W 5 7 30.33 1027 10 16 N/A
3:53 am 03:53 Cloudy 36 2.2 32 undefined 86 86 W 3 6 30.30 1026 10 16 N/A
4:16 am 04:16 Cloudy 35 1.7 32 undefined 89 89 WNW 3 6 30.33 1027 10 16 N/A
4:53 am 04:53 Cloudy 36 2.2 33 0.6 89 89 N 3 6 30.30 1026 10 16 N/A
5:53 am 05:53 Cloudy 37 2.8 33 0.6 86 86 WNW 6 9 30.32 1027 10 16 N/A
6:53 am 06:53 Cloudy 37 2.8 33 0.6 86 86 WNW 6 9 30.34 1027 10 16 N/A
7:53 am 07:53 Cloudy 37 2.8 33 0.6 86 86 WNW 7 11 30.36 1028 10 16 N/A
8:53 am 08:53 Cloudy 39 3.9 33 0.6 79 79 NW 6 9 30.37 1029 10 16 N/A
9:53 am 09:53 Cloudy 40 4.4 33 0.6 77 77 N N/A 30.39 1029 10 16 N/A
10:53 am 10:53 Cloudy 42 5.6 34 1.1 73 73 N 3 6 30.41 1030 10 16 N/A
11:53 am 11:53 Cloudy 42 5.6 34 1.1 73 73 NW 3 6 30.42 1030 10 16 N/A
12:46 pm 12:46 Cloudy 43 6.1 33 0.6 68 68 NW 5 7 30.39 1029 10 16 N/A
12:53 pm 12:53 Cloudy 44 6.7 33 0.6 65 65 WNW 5 7 30.42 1030 10 16 N/A
1:53 pm 13:53 Cloudy 45 7.2 33 0.6 63 63 N N/A 30.40 1030 10 16 N/A
2:53 pm 14:53 Cloudy 46 7.8 33 0.6 61 61 N N/A 30.37 1029 10 16 N/A
3:53 pm 15:53 Cloudy 47 8.3 32 undefined 56 56 N N/A 30.35 1028 10 16 N/A
4:53 pm 16:53 Cloudy 46 7.8 32 undefined 58 58 N N/A 30.35 1028 10 16 N/A
5:53 pm 17:53 Cloudy 47 8.3 32 undefined 56 56 N N/A 30.33 1027 10 16 N/A
6:53 pm 18:53 Mostly Cloudy 47 8.3 32 undefined 56 56 E 6 9 30.31 1027 10 16 N/A
7:53 pm 19:53 Mostly Clear 41 5 33 0.6 73 73 N N/A 30.32 1027 10 16 N/A
8:53 pm 20:53 Clear 36 2.2 30 -1.1 79 79 N N/A 30.30 1026 10 16 N/A
9:53 pm 21:53 Clear 33 0.6 30 -1.1 89 89 N N/A 30.30 1026 10 16 N/A
10:53 pm 22:53 Clear 34 1.1 30 -1.1 85 85 E 5 7 30.29 1026 10 16 N/A
11:53 pm 23:53 Clear 32 undefined 30 -1.1 92 92 E 3 6 30.28 1025 10 16 N/A

Powered by AerisWeather